CAPE
0 0 0 10 41 61 167 170 157 238 2 0 54 451 1211 970 818 696 499 475 489 540 587 609 591 429 709 1103 1795 2205 1269 2657 2388 1802 2376 2565 2566 2965 2590 2559 2028 1580 1341 1241
0 0 0 7 44 162 83 105 147 161 3 0 69 171 36 398 973 790 601 524 521 594 577 825 568 361 622 1237 1650 2576 2812 3772 3214 2941 2820 2802 2611 2334 2527 2882 2729 2507 2794 2737
0 0 0 0 36 117 42 31 126 75 100 0 0 108 138 958 1156 851 745 610 541 639 683 785 724 906 947 841 925 917 3180 3669 3443 3987 3644 3564 3152 2967 2720 2534 3281 3133 2896 2749
0 0 1 0 3 114 11 22 75 111 14 0 57 35 97 136 572 982 914 862 518 708 863 1224 933 736 804 34 0 423 2797 3633 3068 3210 2390 3057 2793 1821 2106 2473 3178 3366 3160 3012
0 0 0 6 29 28 5 36 42 50 33 0 4 75 82 49 483 16 427 1042 879 1049 1304 685 1205 480 1007 595 309 232 3693 3186 3432 2372 1823 1930 2021 1617 1794 2146 1832 3044 3329 2740
0 0 0 0 1 6 1 2 21 30 1 0 69 71 152 272 212 0 6 155 1038 798 1460 1044 1492 555 1016 819 1461 3186 3139 3410 2860 1948 922 633 632 876 1250 1125 2235 1831 2233 2253
0 0 0 0 0 1 0 2 21 54 24 20 46 95 89 53 23 42 157 933 1047 1065 1400 1655 743 582 1155 1605 1870 2593 3060 2839 2929 2029 809 310 136 1915 1810 2503 1526 1775 1342 1146
0 0 0 0 0 0 0 0 21 151 13 90 189 87 108 52 90 406 482 989 1057 1716 1886 1680 1221 1204 1606 1762 2537 2989 2656 2439 1847 1349 1696 1292 1221 1354 1554 1458 1562 1182 735 146
0 0 0 0 0 0 0 0 0 2 0 1 38 56 4 19 202 515 490 886 1108 1785 1969 1933 1853 1733 2144 2240 2577 2569 2045 2105 2125 1798 1698 1190 1308 985 1064 817 702 77 4 0
0 0 0 0 0 0 0 0 0 0 0 0 2 252 81 498 334 1321 718 965 1368 2003 2122 2219 1964 2088 1897 1719 1985 1871 1808 1983 1711 1182 910 801 770 657 439 86 6 2 3 6
0 0 0 0 0 0 0 0 0 0 0 14 10 258 391 936 395 786 409 1644 1800 1848 2258 2011 2039 1867 1978 1719 1635 1410 1311 955 903 969 848 656 258 58 13 0 0 10 18 25
0 0 0 0 0 0 0 0 0 0 0 0 3 134 444 435 148 293 172 1961 1976 2179 2117 1807 1910 1848 1646 1624 1567 1155 1031 959 672 654 499 109 19 3 0 0 3 10 18 29
0 0 0 0 0 0 0 0 0 0 0 0 0 272 271 127 52 52 713 2043 2583 2317 2153 2216 2011 1998 2256 1668 1066 915 870 779 416 345 18 0 0 0 1 11 14 14 23 23
0 0 0 0 0 0 0 0 0 0 0 0 0 405 500 192 215 446 390 2312 2283 2209 2308 2326 1859 2100 1694 1143 903 1008 771 572 205 79 4 0 0 1 0 8 13 14 16 14
0 0 0 0 0 0 0 0 0 0 0 0 0 97 827 467 409 1752 2097 2231 2147 2217 2076 1841 1735 1556 1458 1118 1260 1058 553 422 79 4 0 4 10 6 9 13 16 6 2 3
0 0 0 0 0 0 0 0 0 0 0 0 0 0 0 1165 2012 2200 2285 2190 2161 2110 1882 1808 2134 1517 1309 1032 1041 785 446 146 37 9 5 11 15 18 17 14 5 5 4 5
0 0 0 0 0 0 0 0 0 0 0 0 0 0 0 886 2038 2343 2688 2594 2388 2016 1878 1886 1453 1382 980 817 954 514 240 0 0 5 11 16 23 19 8 5 10 10 8 9
70 85 51 0 0 0 0 0 0 0 0 0 0 0 0 0 1729 2080 2796 2555 2453 2151 2026 1867 1610 1249 961 763 367 299 1 1 3 8 14 17 22 13 10 11 7 10 4 5
3 56 121 114 7 0 0 0 0 0 0 0 0 0 0 24 1700 35 983 2140 2442 2196 2178 1710 1553 1288 1175 642 306 104 0 0 0 5 7 13 17 11 11 11 9 9 15 22
19 81 180 143 178 57 3 0 0 0 2 0 0 0 0 280 1227 2198 2438 2033 2180 1980 1972 1729 1579 1316 881 367 99 0 0 0 0 1 4 13 21 13 10 13 18 24 49 37
351 436 235 129 54 91 138 99 176 190 0 0 14 0 2 867 807 1910 2278 2135 2160 2239 2012 1867 1508 811 455 214 5 0 0 0 0 0 1 18 21 18 23 31 39 47 46 45
452 491 309 592 462 55 397 207 404 1009 1039 818 659 254 872 1013 1098 2156 1793 1996 2430 2246 1870 1314 990 571 320 203 64 0 0 0 0 7 8 11 11 2 1 36 35 70 80 66
200 325 146 149 62 367 428 256 920 463 594 850 764 775 236 617 1348 1080 2197 2563 2426 2139 1564 1071 826 641 330 253 32 0 0 0 5 14 11 12 18 38 36 39 66 48 100 69
453 102 289 64 131 305 301 200 1118 581 474 296 619 967 177 205 1196 1793 2279 2419 2303 1772 1312 930 687 424 362 255 9 0 0 3 9 17 19 25 17 18 12 4 18 45 103 25
279 17 56 90 83 185 341 298 544 478 791 1028 843 1038 297 168 1979 2292 2395 2374 1982 1531 1200 794 388 384 177 8 0 0 0 2 6 10 10 1 3 0 20 23 82 42 34 0
120 197 169 366 180 160 4 0 776 1259 1309 1217 1297 1278 1348 1970 2096 2384 2247 2195 1724 1478 1058 776 522 21 0 0 0 0 0 2 12 11 9 0 2 0 5 14 25 0 0 0
CIN
-0 -0 -0 -130 -42 -17 -18 -283 -226 -27 -2 -0 -9 -3 -32 -53 -51 -65 -61 -31 -29 -15 -5 -19 -2 -0 -0 -2 -4 -18 -69 -24 -22 -58 -14 -17 -11 -5 -2 -8 -16 -12 -20 -19
-0 -0 -0 -116 -21 -0 -1 -0 -0 -10 -3 -0 -23 -138 -503 -366 -25 -30 -28 -30 -3 -1 -23 -21 -6 -6 -6 -66 -25 -7 -2 -8 -6 -6 -18 -15 -19 -8 -1 -4 -9 -6 -2 -0
-0 -0 -0 -3 -33 -1 -13 -0 -18 -50 -5 -0 -5 -20 -90 -26 -13 -18 -1 -2 -0 -1 -15 -24 -11 -5 -114 -142 -77 -128 -10 -4 -11 -5 -6 -1 -2 -0 -1 -4 -2 -1 -0 -1
-0 -0 -0 -0 -27 -1 -21 -3 -7 -6 -32 -0 -12 -5 -60 -47 -34 -17 -0 -2 -2 -2 -16 -21 -17 -39 -231 -453 -0 -200 -21 -10 -21 -17 -11 -1 -6 -30 -44 -14 -2 -3 -1 -0
-0 -0 -0 -2 -41 -11 -24 -1 -7 -13 -31 -10 -20 -9 -271 -52 -252 -245 -156 -7 -0 -10 -25 -87 -47 -66 -112 -322 -381 -336 -7 -16 -3 -43 -50 -30 -43 -47 -26 -22 -5 -6 -5 -0
-0 -0 -0 -0 -1 -1 -0 -0 -0 -4 -0 -0 -12 -15 -189 -217 -344 -0 -21 -314 -1 -8 -32 -82 -73 -136 -66 -52 -4 -10 -30 -4 -11 -49 -120 -155 -203 -121 -31 -26 -29 -30 -22 -10
-0 -0 -0 -0 -0 -0 -0 -0 -3 -16 -0 -6 -56 -50 -150 -178 -43 -406 -405 -29 -2 -12 -114 -86 -231 -205 -85 -5 -2 -1 -8 -0 -0 -15 -88 -153 -221 -39 -10 -9 -37 -29 -10 -1
-0 -0 -0 -0 -0 -0 -0 -0 -4 -8 -1 -8 -158 -55 -82 -525 -303 -72 -4 -7 -2 -12 -78 -83 -178 -135 -52 -19 -1 -5 -0 -1 -6 -30 -4 -32 -36 -8 -1 -3 -1 -2 -6 -126
-0 -0 -0 -0 -0 -0 -0 -0 -0 -0 -0 -0 -6 -86 -13 -216 -87 -6 -8 -4 -6 -10 -41 -64 -84 -61 -16 -14 -2 -7 -12 -2 -0 -2 -3 -16 -3 -4 -3 -1 -7 -116 -93 -0
-0 -0 -0 -0 -0 -0 -0 -0 -0 -0 -0 -0 -1 -7 -122 -230 -113 -12 -6 -7 -11 -5 -17 -34 -51 -48 -69 -53 -13 -21 -10 -0 -2 -18 -50 -39 -11 -6 -22 -62 -96 -0 -0 -0
-0 -0 -0 -0 -0 -0 -0 -0 -0 -0 -0 -0 -0 -48 -155 -138 -139 -99 -158 -11 -28 -28 -35 -56 -44 -62 -79 -86 -68 -65 -61 -85 -62 -44 -52 -50 -147 -214 -61 -0 -0 -0 -0 -0
-0 -0 -0 -0 -0 -0 -0 -0 -0 -0 -0 -0 -1 -24 -77 -124 -163 -263 -292 -12 -43 -42 -57 -62 -53 -43 -135 -97 -75 -109 -114 -87 -107 -92 -109 -274 -354 -323 -0 -0 -1 -0 -0 -0
-0 -0 -0 -0 -0 -0 -0 -0 -0 -0 -0 -0 -0 -81 -96 -195 -339 -343 -159 -41 -70 -69 -69 -35 -66 -56 -31 -76 -174 -156 -132 -120 -190 -177 -394 -0 -0 -0 -0 -0 -0 -0 -0 -0
-0 -0 -0 -0 -0 -0 -0 -0 -0 -0 -0 -0 -0 -27 -63 -294 -358 -255 -361 -3 -66 -77 -68 -60 -97 -76 -93 -183 -194 -119 -131 -154 -280 -354 -132 -0 -0 -0 -0 -0 -0 -0 -0 -1
-0 -0 -0 -0 -0 -0 -0 -0 -0 -0 -0 -0 -0 -5 -21 -80 -56 -18 -49 -56 -61 -50 -88 -151 -141 -166 -123 -180 -97 -96 -173 -192 -361 -420 -0 -0 -0 -0 -0 -0 -0 -1 -1 -1
-0 -0 -0 -0 -0 -0 -0 -0 -0 -0 -0 -0 -0 -0 -0 -13 -16 -29 -83 -97 -89 -90 -120 -138 -95 -179 -165 -185 -139 -152 -212 -303 -339 -364 -0 -0 -0 -0 -0 -0 -0 -0 -0 -1
-0 -0 -0 -0 -0 -0 -0 -0 -0 -0 -0 -0 -0 -0 -0 -9 -22 -45 -83 -102 -83 -145 -144 -144 -189 -186 -232 -229 -151 -239 -302 -160 -0 -0 -0 -0 -0 -0 -0 -0 -0 -0 -0 -0
-0 -2 -0 -0 -0 -0 -0 -0 -0 -0 -0 -0 -0 -0 -0 -0 -22 -33 -82 -111 -87 -108 -111 -140 -148 -181 -208 -217 -311 -297 -250 -133 -1 -0 -0 -0 -0 -0 -0 -0 -0 -0 -0 -0
-14 -1 -0 -0 -0 -0 -0 -0 -0 -0 -0 -0 -0 -0 -0 -1 -208 -143 -30 -71 -92 -91 -63 -110 -111 -137 -130 -230 -306 -369 -0 -0 -0 -0 -0 -0 -0 -0 -0 -0 -0 -0 -0 -0
-4 -1 -1 -2 -0 -0 -11 -0 -0 -0 -1 -0 -0 -0 -0 -3 -3 -6 -6 -122 -64 -84 -94 -89 -82 -118 -198 -325 -395 -0 -0 -0 -0 -1 -0 -0 -0 -1 -0 -0 -0 -0 -0 -0
-0 -1 -0 -1 -1 -1 -8 -4 -2 -0 -0 -0 -0 -0 -0 -4 -6 -16 -42 -64 -79 -58 -58 -48 -80 -219 -330 -397 -254 -0 -0 -0 -0 -0 -0 -0 -0 -0 -0 -0 -0 -0 -0 -3
-13 -49 -2 -0 -1 -5 -30 -7 -21 -36 -55 -21 -25 -21 -120 -182 -155 -35 -99 -52 -40 -67 -59 -116 -157 -264 -350 -387 -399 -0 -0 -0 -0 -0 -0 -0 -0 -1 -0 -0 -0 -0 -0 -2
-70 -59 -39 -130 -234 -181 -21 -68 -49 -45 -108 -136 -30 -194 -397 -455 -419 -24 -38 -63 -50 -41 -108 -164 -207 -236 -323 -317 -397 -0 -0 -0 -1 -0 -0 -0 -1 -1 -3 -1 -1 -1 -5 -23
-58 -313 -182 -118 -122 -101 -99 -34 -100 -238 -111 -122 -76 -33 -262 -330 -219 -35 -27 -49 -37 -102 -145 -198 -223 -314 -280 -274 -377 -0 -0 -0 -1 -0 -0 -0 -0 -0 -1 -6 -18 -17 -2 -9
-21 -109 -181 -115 -315 -210 -266 -145 -28 -114 -108 -16 -31 -10 -240 -79 -23 -8 -3 -10 -66 -129 -129 -192 -281 -333 -338 -376 -0 -0 -0 -0 -0 -0 -0 -0 -0 -0 -3 -6 -2 -5 -16 -0
-48 -60 -0 -65 -153 -247 -142 -0 -38 -25 -21 -25 -21 -7 -1 -15 -38 -27 -17 -11 -63 -72 -141 -200 -229 -504 -0 -0 -0 -0 -0 -0 -0 -0 -0 -0 -2 -0 -11 -14 -18 -0 -0 -0
Wind_Speed
18 15 16 22 17 14 22 30 34 20 7 8 13 1 16 15 17 18 15 15 15 16 13 17 12 13 15 12 12 15 12 12 11 9 8 4 3 3 5 5 8 8 5 6
19 19 21 23 8 15 7 14 11 9 4 6 14 16 30 30 17 16 15 17 15 16 15 16 13 12 13 10 2 9 7 9 6 8 7 4 5 2 0 3 6 7 7 6
21 21 20 20 20 8 11 15 7 10 17 8 8 6 11 14 13 13 14 16 17 15 18 16 13 11 14 17 11 18 10 8 7 7 6 3 5 1 3 3 4 3 3 3
21 22 23 15 21 10 12 12 9 16 10 14 10 11 7 5 3 4 13 14 17 16 18 16 13 18 20 19 13 23 13 11 8 8 5 4 2 2 4 1 2 3 4 4
21 23 22 21 21 16 16 19 5 9 15 17 22 4 5 15 6 18 17 16 16 17 21 18 14 13 18 20 18 15 10 9 5 3 10 3 6 4 5 4 2 3 4 3
20 21 23 21 20 14 13 19 16 13 11 13 9 11 4 7 10 18 32 30 18 20 19 17 14 12 7 7 9 14 10 6 7 4 7 4 9 4 0 7 5 6 4 6
20 22 23 16 24 16 18 17 12 12 13 7 6 3 7 9 23 28 31 22 17 20 21 17 14 12 9 10 8 12 10 8 7 7 1 1 3 3 1 4 4 6 4 3
19 19 22 12 16 16 21 20 14 16 15 4 4 5 6 14 33 31 11 18 18 24 21 20 17 14 11 9 10 12 10 7 7 6 5 3 4 2 3 6 3 5 5 6
19 22 17 25 18 21 20 19 20 18 19 17 11 3 14 11 17 5 8 17 17 24 22 19 15 14 10 10 10 11 10 8 7 7 7 5 3 3 5 4 6 7 7 6
23 20 21 21 20 19 19 19 16 12 17 18 14 11 7 21 12 6 5 12 14 19 21 19 14 13 12 11 8 10 7 7 8 8 9 6 6 6 6 6 6 6 6 5
22 22 20 16 17 15 14 17 19 17 12 12 14 5 19 25 20 11 3 9 13 17 18 16 16 13 14 13 12 11 9 9 8 7 8 7 7 6 6 6 6 5 5 5
18 14 17 21 13 18 16 18 19 13 14 15 16 2 16 23 9 0 3 11 14 15 17 17 17 14 19 14 13 12 11 10 9 8 7 7 6 6 6 5 6 6 6 5
8 13 16 22 19 14 13 15 20 20 17 17 16 4 14 19 16 10 11 16 14 16 17 17 16 13 14 13 12 11 9 8 9 8 8 7 6 6 6 6 7 6 5 6
8 16 16 16 15 15 21 18 21 20 15 15 18 9 13 27 28 27 18 17 17 16 17 16 16 14 13 14 12 10 10 9 9 9 8 6 6 6 7 6 6 7 7 7
12 18 17 17 20 21 19 18 19 19 22 19 18 5 17 19 19 25 20 17 18 18 19 17 17 16 13 14 11 10 11 8 10 8 7 6 7 7 7 7 6 7 7 6
13 15 15 18 19 20 20 17 14 21 20 20 23 21 17 17 22 19 22 22 20 19 18 18 19 17 16 15 12 11 10 10 9 8 8 7 6 7 6 6 6 5 5 6
15 13 13 15 16 19 20 18 16 14 16 16 18 18 15 6 19 22 21 19 20 20 20 19 18 18 16 16 12 12 11 10 9 9 8 7 7 7 6 6 5 5 5 5
10 10 8 12 14 17 15 17 19 20 20 16 18 17 13 15 19 19 22 19 20 18 19 20 17 17 18 17 16 12 12 10 9 9 9 8 8 8 6 6 5 4 4 4
17 15 12 10 12 15 17 19 19 18 16 15 19 17 13 13 29 19 25 18 18 18 17 16 17 18 15 16 14 12 11 10 9 9 9 8 8 8 6 6 4 3 2 3
21 19 12 11 15 16 14 18 12 15 12 9 14 16 16 12 10 18 22 21 21 21 19 18 18 17 17 16 14 11 11 10 9 9 8 7 8 8 6 5 4 2 3 2
16 15 13 14 12 14 16 18 15 15 8 14 15 17 16 13 9 18 24 21 21 18 19 18 18 16 17 15 14 12 11 10 10 9 8 7 7 7 6 4 3 4 2 1
12 3 11 14 14 13 12 13 11 9 17 16 14 6 11 15 12 26 22 14 19 21 19 19 16 15 15 14 12 12 11 11 11 10 9 8 7 7 7 6 4 5 4 6
1 10 6 1 6 19 16 13 22 12 8 18 14 14 16 24 38 25 18 22 20 19 18 17 16 15 13 13 11 11 11 11 11 10 9 8 7 6 7 5 6 5 7 7
9 12 3 4 12 13 18 10 14 16 10 16 24 3 14 20 30 27 18 20 18 18 17 16 17 16 13 11 10 11 11 10 10 10 9 7 5 4 5 6 6 8 2 5
8 8 9 12 13 9 18 27 7 6 19 14 17 12 12 19 19 22 19 17 17 17 15 14 12 15 13 11 11 11 10 10 9 9 8 8 7 7 7 7 3 3 3 2
7 8 15 8 0 4 6 27 16 5 8 12 15 11 5 17 19 21 17 15 15 15 15 16 14 15 13 11 12 11 11 10 9 8 7 8 8 8 8 7 4 4 6 11
Wind_Direction
224 236 237 252 266 143 188 178 207 233 145 228 273 266 116 187 189 175 181 170 184 183 189 163 201 174 162 151 157 144 199 159 146 154 194 188 204 203 195 221 181 202 213 215
231 225 244 255 218 268 279 267 244 23 139 232 106 197 108 249 201 185 181 170 187 185 167 161 191 178 155 58 177 163 188 157 189 176 172 185 164 204 212 253 172 199 211 211
228 236 224 261 273 222 257 271 115 159 263 276 291 179 180 169 194 192 191 185 185 184 168 168 181 159 82 90 330 298 174 162 193 249 137 123 147 116 187 234 209 185 222 222
241 239 258 215 261 268 241 275 324 315 288 285 210 285 164 297 164 295 207 199 189 183 168 159 170 105 120 131 200 252 229 162 203 233 141 161 166 165 255 155 153 200 182 210
234 242 245 256 237 224 261 284 193 282 294 286 284 176 257 271 356 333 278 221 203 167 152 163 167 144 161 168 185 232 150 154 186 51 51 50 50 45 356 287 171 257 176 137
246 251 241 249 258 259 260 268 276 279 271 270 7 15 134 172 211 194 252 265 193 162 156 164 151 151 186 154 173 127 128 131 131 115 125 136 142 112 322 271 266 224 146 74
243 246 258 238 243 225 246 251 261 245 251 265 74 98 163 109 279 232 220 216 181 155 144 148 148 152 187 129 125 125 122 141 118 126 100 34 82 91 314 319 347 33 26 46
231 226 240 221 256 255 228 250 254 255 261 167 314 235 158 105 261 211 170 158 166 138 151 155 157 165 144 155 140 116 129 133 135 151 106 75 85 111 41 29 343 46 28 58
241 234 230 222 217 234 254 249 244 275 280 276 238 179 136 165 359 242 152 147 158 144 150 144 157 150 142 120 124 125 140 162 160 135 139 136 104 81 83 32 17 45 37 18
247 259 244 214 211 214 237 260 250 229 254 272 272 204 116 81 283 5 299 150 149 140 144 148 155 129 121 130 116 112 125 142 122 112 107 110 104 95 94 72 58 64 43 35
232 255 265 271 197 213 219 241 260 279 281 276 262 134 150 152 179 173 266 156 154 144 142 144 138 145 130 125 127 125 135 119 132 112 105 112 108 98 76 81 66 55 62 46
218 251 253 260 238 205 231 255 236 248 258 267 281 188 170 162 129 276 94 167 156 149 146 151 139 154 125 136 135 147 155 148 126 110 116 111 94 82 80 58 80 52 51 40
227 235 251 254 235 199 242 228 260 245 242 257 276 123 172 125 110 319 249 174 154 149 145 140 139 146 123 132 134 146 153 133 133 150 134 123 116 100 85 76 66 69 53 54
302 277 239 247 246 246 208 223 243 252 256 243 250 162 152 167 165 198 211 171 161 155 145 137 142 132 137 131 145 166 145 145 152 107 94 97 85 64 77 82 74 79 62 55
259 256 266 265 259 270 273 230 211 239 268 278 285 271 199 183 184 165 151 159 163 156 149 149 150 140 152 140 153 150 143 130 105 111 119 97 89 86 84 86 78 65 61 65
240 249 265 274 267 267 272 271 262 220 224 255 272 277 298 115 136 155 158 166 169 155 155 160 142 148 155 156 155 141 130 123 137 130 113 112 114 113 105 95 88 94 86 72
217 230 236 252 255 252 261 258 262 261 270 236 239 258 270 174 159 159 158 164 169 162 158 152 159 152 157 159 147 141 134 133 134 124 124 129 131 116 114 116 115 102 91 79
285 288 269 244 253 254 263 262 249 246 253 255 266 263 245 256 176 150 153 165 164 166 156 148 154 157 160 155 150 139 139 137 131 133 132 139 135 127 136 129 129 127 110 95
266 265 255 257 255 253 261 252 253 247 241 239 259 264 253 246 98 106 249 176 160 154 146 148 156 157 155 145 136 138 139 139 142 139 141 150 143 140 149 149 134 115 161 184
241 249 242 240 271 260 257 244 258 262 258 277 236 247 246 201 172 152 161 168 156 157 146 162 156 143 134 133 136 145 143 145 146 142 145 153 147 147 154 136 158 182 252 249
229 237 241 230 248 267 285 297 337 253 244 236 253 247 239 185 196 161 148 156 146 147 154 156 144 139 135 138 147 148 148 152 141 138 141 149 148 152 138 171 188 205 239 270
277 315 238 227 232 230 4 324 360 359 360 19 6 61 13 54 336 137 126 131 147 148 143 133 132 132 138 142 146 149 157 138 135 140 144 150 156 183 163 186 191 241 230 235
143 259 220 266 309 307 306 31 16 34 10 336 336 74 89 79 64 330 141 141 144 144 140 139 134 139 143 144 152 156 136 142 146 148 151 162 180 214 153 193 206 229 239 252
68 10 351 249 256 293 330 1 39 348 339 324 315 141 149 132 149 173 147 142 145 140 139 137 144 147 142 140 143 128 140 148 153 152 162 167 177 179 181 219 224 234 194 35
358 135 309 267 265 349 319 297 67 355 314 307 304 298 164 174 154 131 138 142 137 136 142 137 154 137 141 139 132 140 147 159 158 158 173 173 194 196 200 238 199 96 94 168
268 168 198 299 9 127 347 310 304 264 283 285 287 285 155 128 126 125 130 127 132 143 138 144 136 130 139 144 138 149 158 172 166 174 191 196 172 190 206 200 175 226 185 195